FW3754 Weather Reports


Display with metric or nautical units.
time (UTC)temp
F
wind
direction
speed
MPH
gust
MPH
rain 1hr
in
rain 24hr
in
rain mn
in
humidity
%
barometer
mb
20260903163036 96 349 2.0 0.0 0.00 0.00 0.00 56 1014.1
20260903161535 95 209 2.0 0.0 0.00 0.00 0.00 58 1014.0
20260903160052 94 284 2.0 0.0 0.00 0.00 0.00 61 1014.2
20260903154528 92 311 2.0 0.0 0.00 0.00 0.00 66 1014.4
20260903153025 90 288 3.0 0.0 0.00 0.00 0.00 68 1014.5
20260903151529 90 336 3.0 0.0 0.00 0.00 0.00 70 1014.3
20260903150028 90 283 1.0 0.0 0.00 0.00 0.00 70 1014.3
20260903144522 90 65 2.0 0.0 0.00 0.00 0.00 71 1014.3
20260903143024 88 338 4.0 0.0 0.00 0.00 0.00 74 1014.3
20260903141517 87 9 4.0 0.0 0.00 0.00 0.00 76 1014.2
20260903140014 88 338 3.0 0.0 0.00 0.00 0.00 76 1014.3
20260903134511 87 304 3.0 0.0 0.00 0.00 0.00 80 1014.0
20260903133008 86 340 3.0 0.0 0.00 0.00 0.00 81 1013.8
20260903131506 85 9 2.0 0.0 0.00 0.00 0.00 82 1013.9
20260903130002 84 338 2.0 0.0 0.00 0.00 0.00 85 1013.9
20260903124601 82 309 1.0 0.0 0.00 0.00 0.00 89 1014.0
20260903123055 81 196 0.0 0.0 0.00 0.00 0.00 92 1014.0
20260903121552 80 130 0.0 0.0 0.00 0.00 0.00 94 1013.9
20260903114555 78 130 0.0 0.0 0.00 0.00 0.00 94 1013.5
20260903113049 78 130 0.0 0.0 0.00 0.00 0.00 94 1013.5
20260903111549 78 130 0.0 0.0 0.00 0.00 0.00 95 1013.3
20260903110048 77 130 0.0 0.0 0.00 0.00 0.00 94 1012.9
20260903104549 77 130 0.0 0.0 0.00 0.00 0.00 94 1012.7
20260903103047 77 130 0.0 0.0 0.00 0.00 0.00 94 1012.5
20260903101550 78 130 0.0 0.0 0.00 0.00 0.00 94 1012.6
20260903100046 78 130 0.0 0.0 0.00 0.00 0.00 94 1012.4
20260903094546 78 130 0.0 0.0 0.00 0.00 0.00 94 1012.3
20260903093106 78 130 0.0 0.0 0.00 0.00 0.00 94 1012.3
20260903091545 78 130 0.0 0.0 0.00 0.00 0.00 93 1012.3
20260903090044 78 130 0.0 0.0 0.00 0.00 0.00 93 1012.3
20260903084544 78 130 0.0 0.0 0.00 0.00 0.00 93 1012.1
20260903083043 78 149 0.0 0.0 0.00 0.00 0.00 93 1012.2
20260903081544 78 150 0.0 0.0 0.00 0.00 0.00 92 1012.3
20260903080042 78 230 0.0 0.0 0.00 0.00 0.00 91 1012.2
20260903074557 79 264 0.0 0.0 0.00 0.00 0.00 90 1012.1
20260903073045 78 332 0.0 0.0 0.00 0.00 0.00 92 1012.2
20260903071538 78 229 1.0 0.0 0.00 0.00 0.00 92 1012.1
20260903070037 78 321 0.0 0.0 0.00 0.00 0.00 93 1012.3
20260903064541 78 284 1.0 0.0 0.00 0.00 0.00 93 1012.6
20260903063036 78 288 1.0 0.0 0.00 0.00 0.00 93 1012.3
20260903061542 77 288 1.0 0.0 0.00 0.00 0.00 93 1012.8
20260903060033 77 283 1.0 0.0 0.00 0.00 0.00 93 1012.9
20260903054530 77 278 1.0 0.0 0.00 0.00 0.00 94 1013.1
20260903053027 77 263 1.0 0.0 0.00 0.00 0.00 93 1013.6
20260903051528 77 271 1.0 0.0 0.00 0.00 0.00 93 1013.6
20260903050030 77 229 0.0 0.0 0.00 0.00 0.00 93 1013.9
20260903044524 77 288 1.0 0.0 0.00 0.00 0.00 93 1014.2
20260903043024 77 236 1.0 0.0 0.00 0.00 0.00 93 1014.0
20260903041529 77 136 1.0 0.0 0.00 0.00 0.00 93 1014.5
20260903040018 78 122 4.0 0.0 0.00 0.00 0.00 92 1014.5
20260903034523 78 151 3.0 0.0 0.00 0.00 0.00 91 1014.6
20260903033016 79 129 4.0 0.0 0.00 0.00 0.03 91 1014.6
20260903031515 79 111 2.0 0.0 0.00 0.00 0.03 90 1014.5
20260903030014 80 180 1.0 0.0 0.00 0.00 0.03 90 1014.8
20260903024513 80 171 1.0 0.0 0.00 0.00 0.03 91 1014.4
20260903023013 80 228 1.0 0.0 0.00 0.00 0.03 89 1014.2
20260903021513 80 265 0.0 0.0 0.00 0.00 0.03 88 1013.9
20260903020012 81 278 1.0 0.0 0.00 0.00 0.03 87 1013.7
20260903014511 82 222 1.0 0.0 0.00 0.00 0.03 83 1013.9
20260903013011 84 88 3.0 0.0 0.00 0.00 0.01 86 1013.5
20260903011511 85 146 0.0 0.0 0.00 0.00 0.01 83 1013.3
20260903010011 85 24 2.0 0.0 0.00 0.00 0.01 81 1013.4
20260903004511 85 34 2.0 0.0 0.00 0.00 0.01 80 1013.3
20260903003010 86 360 3.0 0.0 0.00 0.00 0.01 79 1012.9
20260903001509 86 329 1.0 0.0 0.00 0.00 0.01 78 1012.8
20260903000008 87 304 1.0 0.0 0.00 0.00 0.01 76 1012.7
20260902234507 87 283 1.0 0.0 0.00 0.00 0.01 76 1012.7
20260902233008 88 355 2.0 0.0 0.00 0.00 0.01 75 1012.6
20260902231512 88 290 3.0 0.0 0.00 0.00 0.01 73 1012.6
20260902230006 89 267 2.0 0.0 0.00 0.00 0.01 71 1012.8
20260902224506 89 265 2.0 0.0 0.00 0.00 0.01 70 1012.5
20260902223006 90 269 5.0 0.0 0.00 0.00 0.01 68 1012.1
20260902221504 90 268 4.0 0.0 0.00 0.00 0.01 68 1012.3
20260902220006 92 253 4.0 0.0 0.00 0.00 0.01 66 1012.2
20260902214502 94 264 4.0 0.0 0.00 0.00 0.01 63 1012.4
20260902213004 95 281 2.0 0.0 0.00 0.00 0.01 63 1012.4
20260902211505 95 206 3.0 0.0 0.00 0.00 0.01 63 1012.5
20260902210001 95 267 2.0 0.0 0.00 0.00 0.01 62 1012.4
20260902204602 95 296 3.0 0.0 0.00 0.00 0.01 63 1012.4
20260902203120 95 240 4.0 0.0 0.00 0.00 0.01 64 1012.5
20260902201556 95 274 3.0 0.0 0.00 0.00 0.01 64 1012.7
20260902200057 94 288 3.0 0.0 0.00 0.00 0.01 67 1012.9
20260902194550 92 267 3.0 0.0 0.00 0.00 0.01 70 1013.0
20260902193052 88 288 2.0 0.0 0.00 0.00 0.01 75 1013.2
20260902191553 87 313 0.0 0.0 0.00 0.00 0.01 78 1013.4
20260902190048 88 275 2.0 0.0 0.00 0.00 0.01 77 1013.6
20260902184552 88 281 2.0 0.0 0.00 0.00 0.01 78 1013.6
20260902183049 87 309 4.0 0.0 0.00 0.00 0.01 80 1013.7
20260902181549 88 283 3.0 0.0 0.00 0.00 0.01 79 1013.7
20260902180046 91 277 3.0 0.0 0.00 0.00 0.00 69 1013.9
20260902174545 93 297 3.0 0.0 0.00 0.00 0.00 66 1014.0
20260902173044 92 263 2.0 0.0 0.00 0.00 0.00 65 1014.0
20260902171542 91 124 3.0 0.0 0.00 0.00 0.00 69 1014.2
20260902170045 90 315 5.0 0.0 0.00 0.00 0.00 66 1014.4
20260902164540 90 57 4.0 0.0 0.00 0.00 0.00 66 1014.5